Time,TemperatureF,DewpointF,PressureIn,WindDirection,WindDirectionDegrees,WindSpeedMPH,WindSpeedGustMPH,Humidity,HourlyPrecipIn,Conditions,Clouds,dailyrainin,SoftwareType,DateUTC
2013-02-28 00:00:00,51.6,46.0,29.75,West,275,3.0,3.0,81,0.00,,,0.00,Wunderground v.1.15,2013-02-28 05:00:00,
2013-02-28 00:04:00,51.6,46.0,29.75,WNW,282,3.0,3.0,81,0.00,,,0.00,Wunderground v.1.15,2013-02-28 05:04:00,
2013-02-28 00:08:00,51.4,45.8,29.75,West,268,3.0,3.0,81,0.00,,,0.00,Wunderground v.1.15,2013-02-28 05:08:00,
2013-02-28 00:14:00,51.4,45.8,29.75,WNW,288,4.0,7.0,81,0.00,,,0.00,Wunderground v.1.15,2013-02-28 05:14:00,
2013-02-28 00:20:00,51.4,45.8,29.75,West,270,7.0,7.0,81,0.00,,,0.00,Wunderground v.1.15,2013-02-28 05:20:00,
2013-02-28 00:26:00,51.3,45.7,29.75,West,277,7.0,8.0,81,0.00,,,0.00,Wunderground v.1.15,2013-02-28 05:26:00,
2013-02-28 00:32:00,51.1,45.8,29.74,West,265,7.0,11.0,82,0.00,,,0.00,Wunderground v.1.15,2013-02-28 05:32:00,
2013-02-28 00:38:00,51.3,45.7,29.74,West,280,7.0,11.0,81,0.00,,,0.00,Wunderground v.1.15,2013-02-28 05:38:00,
2013-02-28 00:44:00,51.4,45.8,29.74,West,280,8.0,11.0,81,0.00,,,0.00,Wunderground v.1.15,2013-02-28 05:44:00,
2013-02-28 00:50:00,51.3,45.7,29.74,WNW,288,8.0,11.0,81,0.00,,,0.00,Wunderground v.1.15,2013-02-28 05:50:00,
2013-02-28 00:56:00,51.3,45.7,29.74,WNW,291,7.0,11.0,81,0.00,,,0.00,Wunderground v.1.15,2013-02-28 05:56:00,
2013-02-28 01:02:00,51.3,45.7,29.74,WNW,284,7.0,7.0,81,0.00,,,0.00,Wunderground v.1.15,2013-02-28 06:02:00,
2013-02-28 01:08:00,51.1,45.5,29.74,WNW,282,7.0,7.0,81,0.00,,,0.00,Wunderground v.1.15,2013-02-28 06:08:00,
2013-02-28 01:14:00,51.4,45.8,29.74,WNW,291,8.0,8.0,81,0.00,,,0.00,Wunderground v.1.15,2013-02-28 06:14:00,
2013-02-28 01:20:00,51.6,45.6,29.74,WNW,284,7.0,7.0,80,0.00,,,0.00,Wunderground v.1.15,2013-02-28 06:20:00,
2013-02-28 01:26:00,51.4,45.4,29.74,WNW,287,5.0,7.0,80,0.00,,,0.00,Wunderground v.1.15,2013-02-28 06:26:00,
2013-02-28 01:32:00,51.6,45.6,29.74,WNW,292,4.0,5.0,80,0.00,,,0.00,Wunderground v.1.15,2013-02-28 06:32:00,
2013-02-28 01:38:00,51.4,45.4,29.74,WNW,291,5.0,6.0,80,0.00,,,0.00,Wunderground v.1.15,2013-02-28 06:38:00,
2013-02-28 01:44:00,51.4,45.4,29.73,WNW,295,5.0,8.0,80,0.00,,,0.00,Wunderground v.1.15,2013-02-28 06:44:00,
2013-02-28 01:50:00,51.4,45.4,29.73,West,268,6.0,6.0,80,0.00,,,0.00,Wunderground v.1.15,2013-02-28 06:50:00,
2013-02-28 01:56:00,51.3,45.3,29.73,West,267,6.0,10.0,80,0.00,,,0.00,Wunderground v.1.15,2013-02-28 06:56:00,
2013-02-28 02:02:00,51.1,45.1,29.73,WNW,291,5.0,6.0,80,0.00,,,0.00,Wunderground v.1.15,2013-02-28 07:02:00,
2013-02-28 02:08:00,51.1,45.1,29.73,WNW,292,6.0,12.0,80,0.00,,,0.00,Wunderground v.1.15,2013-02-28 07:08:00,
2013-02-28 02:14:00,51.0,45.0,29.73,WNW,298,6.0,11.0,80,0.00,,,0.00,Wunderground v.1.15,2013-02-28 07:14:00,
2013-02-28 02:20:00,51.1,45.1,29.73,WNW,289,7.0,8.0,80,0.00,,,0.00,Wunderground v.1.15,2013-02-28 07:20:00,
2013-02-28 02:26:00,51.3,45.3,29.73,WNW,291,7.0,8.0,80,0.00,,,0.00,Wunderground v.1.15,2013-02-28 07:26:00,
2013-02-28 02:32:00,51.1,45.1,29.73,WNW,301,7.0,8.0,80,0.00,,,0.00,Wunderground v.1.15,2013-02-28 07:32:00,
2013-02-28 02:38:00,51.3,45.0,29.73,NW,304,8.0,12.0,79,0.00,,,0.00,Wunderground v.1.15,2013-02-28 07:38:00,
2013-02-28 02:44:00,51.1,44.8,29.72,WNW,285,9.0,10.0,79,0.00,,,0.00,Wunderground v.1.15,2013-02-28 07:44:00,
2013-02-28 02:50:00,51.0,45.0,29.72,West,272,8.0,13.0,80,0.00,,,0.00,Wunderground v.1.15,2013-02-28 07:50:00,
2013-02-28 02:56:00,50.8,44.9,29.72,WNW,289,7.0,13.0,80,0.00,,,0.00,Wunderground v.1.15,2013-02-28 07:56:00,
2013-02-28 03:02:00,50.8,44.5,29.72,WNW,295,7.0,8.0,79,0.00,,,0.00,Wunderground v.1.15,2013-02-28 08:02:00,
2013-02-28 03:08:00,50.7,44.4,29.72,WNW,285,6.0,8.0,79,0.00,,,0.00,Wunderground v.1.15,2013-02-28 08:08:00,
2013-02-28 03:14:00,50.8,44.5,29.72,NW,318,6.0,10.0,79,0.00,,,0.00,Wunderground v.1.15,2013-02-28 08:14:00,
2013-02-28 03:20:00,50.7,44.4,29.72,WNW,296,6.0,10.0,79,0.00,,,0.00,Wunderground v.1.15,2013-02-28 08:20:00,
2013-02-28 03:26:00,50.8,44.2,29.72,West,272,6.0,10.0,78,0.00,,,0.00,Wunderground v.1.15,2013-02-28 08:26:00,
2013-02-28 03:32:00,50.8,44.2,29.72,WNW,296,6.0,6.0,78,0.00,,,0.00,Wunderground v.1.15,2013-02-28 08:32:00,
2013-02-28 03:38:00,50.7,44.1,29.72,WNW,292,5.0,9.0,78,0.00,,,0.00,Wunderground v.1.15,2013-02-28 08:38:00,
2013-02-28 03:44:00,50.7,44.1,29.72,WNW,288,6.0,6.0,78,0.00,,,0.00,Wunderground v.1.15,2013-02-28 08:44:00,
2013-02-28 03:50:00,50.5,43.9,29.72,WNW,289,6.0,7.0,78,0.00,,,0.00,Wunderground v.1.15,2013-02-28 08:50:00,
2013-02-28 03:56:00,50.4,43.8,29.72,WNW,285,6.0,7.0,78,0.00,,,0.00,Wunderground v.1.15,2013-02-28 08:56:00,
2013-02-28 04:02:00,50.4,43.8,29.72,WNW,291,5.0,7.0,78,0.00,,,0.00,Wunderground v.1.15,2013-02-28 09:02:00,
2013-02-28 04:08:00,50.2,43.6,29.72,WNW,291,4.0,7.0,78,0.00,,,0.00,Wunderground v.1.15,2013-02-28 09:08:00,
2013-02-28 04:14:00,50.4,43.8,29.72,West,274,4.0,8.0,78,0.00,,,0.00,Wunderground v.1.15,2013-02-28 09:14:00,
2013-02-28 04:20:00,50.2,43.6,29.72,WNW,294,3.0,3.0,78,0.00,,,0.00,Wunderground v.1.15,2013-02-28 09:20:00,
2013-02-28 04:26:00,50.2,43.6,29.72,West,270,3.0,4.0,78,0.00,,,0.00,Wunderground v.1.15,2013-02-28 09:26:00,
2013-02-28 04:32:00,50.2,43.6,29.73,West,281,5.0,10.0,78,0.00,,,0.00,Wunderground v.1.15,2013-02-28 09:32:00,
2013-02-28 04:38:00,50.4,43.5,29.73,West,274,5.0,10.0,77,0.00,,,0.00,Wunderground v.1.15,2013-02-28 09:38:00,
2013-02-28 04:44:00,50.4,43.5,29.72,West,268,3.0,5.0,77,0.00,,,0.00,Wunderground v.1.15,2013-02-28 09:44:00,
2013-02-28 04:50:00,50.1,43.5,29.72,WNW,288,4.0,6.0,78,0.00,,,0.00,Wunderground v.1.15,2013-02-28 09:50:00,
2013-02-28 04:56:00,50.1,43.5,29.72,WNW,285,6.0,7.0,78,0.00,,,0.00,Wunderground v.1.15,2013-02-28 09:56:00,
2013-02-28 05:02:00,49.9,43.3,29.73,WNW,285,7.0,7.0,78,0.00,,,0.00,Wunderground v.1.15,2013-02-28 10:02:00,
2013-02-28 05:08:00,49.9,43.3,29.73,West,271,7.0,7.0,78,0.00,,,0.00,Wunderground v.1.15,2013-02-28 10:08:00,
2013-02-28 05:14:00,49.6,43.4,29.73,WNW,285,6.0,7.0,79,0.00,,,0.00,Wunderground v.1.15,2013-02-28 10:14:00,
2013-02-28 05:20:00,49.5,43.6,29.73,West,267,6.0,7.0,80,0.00,,,0.00,Wunderground v.1.15,2013-02-28 10:20:00,
2013-02-28 05:26:00,49.4,43.5,29.73,WSW,250,6.0,7.0,80,0.00,,,0.00,Wunderground v.1.15,2013-02-28 10:26:00,
2013-02-28 05:32:00,49.4,43.5,29.73,West,281,7.0,10.0,80,0.00,,,0.00,Wunderground v.1.15,2013-02-28 10:32:00,
2013-02-28 05:38:00,49.5,43.6,29.73,WNW,299,8.0,10.0,80,0.00,,,0.00,Wunderground v.1.15,2013-02-28 10:38:00,
2013-02-28 05:44:00,49.5,43.6,29.74,WSW,257,9.0,11.0,80,0.00,,,0.00,Wunderground v.1.15,2013-02-28 10:44:00,
2013-02-28 05:50:00,49.8,43.5,29.74,WNW,282,10.0,10.0,79,0.00,,,0.00,Wunderground v.1.15,2013-02-28 10:50:00,
2013-02-28 05:56:00,49.5,43.3,29.74,West,261,9.0,10.0,79,0.00,,,0.00,Wunderground v.1.15,2013-02-28 10:56:00,
2013-02-28 06:02:00,49.5,43.6,29.74,West,261,7.0,8.0,80,0.00,,,0.00,Wunderground v.1.15,2013-02-28 11:02:00,
2013-02-28 06:08:00,49.5,43.6,29.74,WSW,250,8.0,12.0,80,0.00,,,0.00,Wunderground v.1.15,2013-02-28 11:08:00,
2013-02-28 06:14:00,49.5,43.6,29.74,West,281,9.0,11.0,80,0.00,,,0.00,Wunderground v.1.15,2013-02-28 11:14:00,
2013-02-28 06:20:00,49.4,43.5,29.74,WNW,296,8.0,8.0,80,0.00,,,0.00,Wunderground v.1.15,2013-02-28 11:20:00,
2013-02-28 06:26:00,49.4,43.5,29.74,West,281,8.0,11.0,80,0.00,,,0.00,Wunderground v.1.15,2013-02-28 11:26:00,
2013-02-28 06:32:00,49.2,43.3,29.74,West,275,8.0,8.0,80,0.00,,,0.00,Wunderground v.1.15,2013-02-28 11:32:00,
2013-02-28 06:38:00,49.2,43.6,29.74,West,271,5.0,9.0,81,0.00,,,0.00,Wunderground v.1.15,2013-02-28 11:38:00,
2013-02-28 06:44:00,48.9,43.3,29.75,WNW,296,4.0,4.0,81,0.00,,,0.00,Wunderground v.1.15,2013-02-28 11:44:00,
2013-02-28 06:50:00,48.9,43.6,29.75,WNW,287,5.0,8.0,82,0.00,,,0.00,Wunderground v.1.15,2013-02-28 11:50:00,
2013-02-28 06:56:00,49.1,43.8,29.75,WNW,285,7.0,12.0,82,0.00,,,0.00,Wunderground v.1.15,2013-02-28 11:56:00,
2013-02-28 07:02:00,48.9,43.6,29.76,WNW,295,7.0,11.0,82,0.00,,,0.00,Wunderground v.1.15,2013-02-28 12:02:00,
2013-02-28 07:08:00,48.9,43.3,29.76,WNW,289,6.0,11.0,81,0.00,,,0.00,Wunderground v.1.15,2013-02-28 12:08:00,
2013-02-28 07:14:00,48.9,43.3,29.76,WNW,292,6.0,7.0,81,0.00,,,0.00,Wunderground v.1.15,2013-02-28 12:14:00,
2013-02-28 07:20:00,49.1,43.5,29.76,NW,306,5.0,5.0,81,0.00,,,0.00,Wunderground v.1.15,2013-02-28 12:20:00,
2013-02-28 07:26:00,49.2,43.0,29.76,West,271,6.0,11.0,79,0.00,,,0.00,Wunderground v.1.15,2013-02-28 12:26:00,
2013-02-28 07:32:00,49.5,42.6,29.76,West,277,6.0,7.0,77,0.00,,,0.00,Wunderground v.1.15,2013-02-28 12:32:00,
2013-02-28 07:38:00,49.6,42.3,29.76,WNW,291,5.0,9.0,76,0.00,,,0.00,Wunderground v.1.15,2013-02-28 12:38:00,
2013-02-28 07:44:00,49.9,42.3,29.76,WNW,298,6.0,6.0,75,0.00,,,0.00,Wunderground v.1.15,2013-02-28 12:44:00,
2013-02-28 07:50:00,50.1,42.1,29.76,WNW,298,4.0,4.0,74,0.00,,,0.00,Wunderground v.1.15,2013-02-28 12:50:00,
2013-02-28 07:56:00,50.4,41.7,29.76,WNW,299,5.0,10.0,72,0.00,,,0.00,Wunderground v.1.15,2013-02-28 12:56:00,
2013-02-28 08:02:00,50.8,41.4,29.77,NW,306,8.0,16.0,70,0.00,,,0.00,Wunderground v.1.15,2013-02-28 13:02:00,
2013-02-28 08:08:00,51.1,41.3,29.77,NW,308,8.0,16.0,69,0.00,,,0.00,Wunderground v.1.15,2013-02-28 13:08:00,
2013-02-28 08:14:00,51.6,40.6,29.78,WNW,288,12.0,13.0,66,0.00,,,0.00,Wunderground v.1.15,2013-02-28 13:14:00,
2013-02-28 08:20:00,51.9,40.5,29.78,WNW,301,15.0,19.0,65,0.00,,,0.00,Wunderground v.1.15,2013-02-28 13:20:00,
2013-02-28 08:26:00,52.2,41.6,29.78,NW,305,17.0,21.0,67,0.00,,,0.00,Wunderground v.1.15,2013-02-28 13:26:00,
2013-02-28 08:32:00,52.2,40.4,29.78,NW,309,17.0,18.0,64,0.00,,,0.00,Wunderground v.1.15,2013-02-28 13:32:00,
2013-02-28 08:38:00,52.3,40.9,29.78,WNW,285,17.0,19.0,65,0.00,,,0.00,Wunderground v.1.15,2013-02-28 13:38:00,
2013-02-28 08:44:00,52.6,40.4,29.78,West,275,17.0,19.0,63,0.00,,,0.00,Wunderground v.1.15,2013-02-28 13:44:00,
2013-02-28 08:50:00,52.6,40.8,29.78,NW,306,15.0,26.0,64,0.00,,,0.00,Wunderground v.1.15,2013-02-28 13:50:00,
2013-02-28 08:56:00,52.5,41.1,29.78,NW,305,19.0,26.0,65,0.00,,,0.00,Wunderground v.1.15,2013-02-28 13:56:00,
2013-02-28 09:02:00,52.5,40.7,29.78,NW,306,20.0,22.0,64,0.00,,,0.00,Wunderground v.1.15,2013-02-28 14:02:00,
2013-02-28 09:08:00,52.6,40.8,29.78,NW,315,19.0,22.0,64,0.00,,,0.00,Wunderground v.1.15,2013-02-28 14:08:00,
2013-02-28 09:14:00,52.6,41.2,29.77,WNW,291,20.0,22.0,65,0.00,,,0.00,Wunderground v.1.15,2013-02-28 14:14:00,
2013-02-28 09:20:00,52.8,41.4,29.77,WNW,294,18.0,18.0,65,0.00,,,0.00,Wunderground v.1.15,2013-02-28 14:20:00,
2013-02-28 09:26:00,53.1,42.4,29.77,NW,313,19.0,19.0,67,0.00,,,0.00,Wunderground v.1.15,2013-02-28 14:26:00,
2013-02-28 09:32:00,52.9,40.6,29.77,WNW,296,20.0,20.0,63,0.00,,,0.00,Wunderground v.1.15,2013-02-28 14:32:00,
2013-02-28 09:38:00,53.1,42.8,29.77,WNW,284,20.0,24.0,68,0.00,,,0.00,Wunderground v.1.15,2013-02-28 14:38:00,
2013-02-28 09:44:00,53.1,42.0,29.77,WNW,302,21.0,26.0,66,0.00,,,0.00,Wunderground v.1.15,2013-02-28 14:44:00,
2013-02-28 09:50:00,53.2,41.3,29.77,NW,308,22.0,22.0,64,0.00,,,0.00,Wunderground v.1.15,2013-02-28 14:50:00,
2013-02-28 09:56:00,53.2,43.3,29.77,NW,304,19.0,25.0,69,0.00,,,0.00,Wunderground v.1.15,2013-02-28 14:56:00,
2013-02-28 10:02:00,53.5,40.8,29.76,WNW,298,19.0,20.0,62,0.00,,,0.00,Wunderground v.1.15,2013-02-28 15:02:00,
2013-02-28 10:08:00,53.6,41.3,29.76,NW,306,17.0,28.0,63,0.00,,,0.00,Wunderground v.1.15,2013-02-28 15:08:00,
2013-02-28 10:14:00,53.8,42.7,29.76,NW,309,20.0,25.0,66,0.00,,,0.00,Wunderground v.1.15,2013-02-28 15:14:00,
2013-02-28 10:20:00,53.8,43.1,29.76,WNW,291,25.0,28.0,67,0.00,,,0.00,Wunderground v.1.15,2013-02-28 15:20:00,
2013-02-28 10:26:00,53.6,42.1,29.76,NW,325,25.0,29.0,65,0.00,,,0.00,Wunderground v.1.15,2013-02-28 15:26:00,
2013-02-28 10:32:00,54.1,42.6,29.76,NW,316,25.0,25.0,65,0.00,,,0.00,Wunderground v.1.15,2013-02-28 15:32:00,
2013-02-28 10:38:00,54.1,40.9,29.76,NW,308,24.0,28.0,61,0.00,,,0.00,Wunderground v.1.15,2013-02-28 15:38:00,
2013-02-28 10:44:00,54.1,42.2,29.76,NW,306,24.0,25.0,64,0.00,,,0.00,Wunderground v.1.15,2013-02-28 15:44:00,
2013-02-28 10:50:00,54.2,41.9,29.76,NW,311,22.0,22.0,63,0.00,,,0.00,Wunderground v.1.15,2013-02-28 15:50:00,
2013-02-28 10:56:00,54.2,41.9,29.76,NW,323,21.0,24.0,63,0.00,,,0.00,Wunderground v.1.15,2013-02-28 15:56:00,
2013-02-28 11:02:00,54.5,42.2,29.76,NW,306,21.0,25.0,63,0.00,,,0.00,Wunderground v.1.15,2013-02-28 16:02:00,
2013-02-28 11:08:00,54.5,41.7,29.76,NW,311,21.0,25.0,62,0.00,,,0.00,Wunderground v.1.15,2013-02-28 16:08:00,
2013-02-28 11:14:00,54.7,40.6,29.75,NW,315,20.0,21.0,59,0.00,,,0.00,Wunderground v.1.15,2013-02-28 16:14:00,
2013-02-28 11:20:00,54.8,41.6,29.75,NW,305,21.0,22.0,61,0.00,,,0.00,Wunderground v.1.15,2013-02-28 16:20:00,
2013-02-28 11:26:00,55.0,43.0,29.75,NW,308,21.0,22.0,64,0.00,,,0.00,Wunderground v.1.15,2013-02-28 16:26:00,
2013-02-28 11:32:00,55.1,41.9,29.75,NW,309,21.0,21.0,61,0.00,,,0.00,Wunderground v.1.15,2013-02-28 16:32:00,
2013-02-28 11:38:00,55.3,41.2,29.75,WNW,301,20.0,25.0,59,0.00,,,0.00,Wunderground v.1.15,2013-02-28 16:38:00,
2013-02-28 11:44:00,55.6,41.9,29.73,NW,312,23.0,29.0,60,0.00,,,0.00,Wunderground v.1.15,2013-02-28 16:44:00,
2013-02-28 11:50:00,56.2,39.3,29.73,WNW,289,22.0,26.0,53,0.00,,,0.00,Wunderground v.1.15,2013-02-28 16:50:00,
2013-02-28 11:56:00,55.7,40.7,29.73,WNW,296,22.0,26.0,57,0.00,,,0.00,Wunderground v.1.15,2013-02-28 16:56:00,
2013-02-28 12:02:00,55.7,42.9,29.73,NW,305,23.0,26.0,62,0.00,,,0.00,Wunderground v.1.15,2013-02-28 17:02:00,
2013-02-28 12:08:00,56.2,42.1,29.73,WNW,298,23.0,27.0,59,0.00,,,0.00,Wunderground v.1.15,2013-02-28 17:08:00,
2013-02-28 12:14:00,56.2,41.6,29.73,NW,313,23.0,28.0,58,0.00,,,0.00,Wunderground v.1.15,2013-02-28 17:14:00,
2013-02-28 12:20:00,56.0,40.5,29.73,NW,316,22.0,22.0,56,0.00,,,0.00,Wunderground v.1.15,2013-02-28 17:20:00,
2013-02-28 12:26:00,56.6,43.3,29.73,NW,306,20.0,22.0,61,0.00,,,0.00,Wunderground v.1.15,2013-02-28 17:26:00,
2013-02-28 12:32:00,56.5,43.2,29.72,NW,311,19.0,22.0,61,0.00,,,0.00,Wunderground v.1.15,2013-02-28 17:32:00,
2013-02-28 12:38:00,57.0,42.4,29.72,NW,308,18.0,22.0,58,0.00,,,0.00,Wunderground v.1.15,2013-02-28 17:38:00,
2013-02-28 12:44:00,57.0,42.4,29.72,NNW,330,16.0,17.0,58,0.00,,,0.00,Wunderground v.1.15,2013-02-28 17:44:00,
2013-02-28 12:50:00,57.6,39.6,29.72,WNW,298,17.0,17.0,51,0.00,,,0.00,Wunderground v.1.15,2013-02-28 17:50:00,
2013-02-28 12:56:00,57.5,42.4,29.72,NW,306,17.0,28.0,57,0.00,,,0.00,Wunderground v.1.15,2013-02-28 17:56:00,
2013-02-28 13:02:00,57.3,40.8,29.71,NW,309,23.0,29.0,54,0.00,,,0.00,Wunderground v.1.15,2013-02-28 18:02:00,
2013-02-28 13:08:00,57.2,41.6,29.71,NW,313,26.0,29.0,56,0.00,,,0.00,Wunderground v.1.15,2013-02-28 18:08:00,
2013-02-28 13:14:00,57.6,38.6,29.70,WNW,299,24.0,26.0,49,0.00,,,0.00,Wunderground v.1.15,2013-02-28 18:14:00,
2013-02-28 13:20:00,58.0,38.4,29.70,NW,309,21.0,21.0,48,0.00,,,0.00,Wunderground v.1.15,2013-02-28 18:20:00,
2013-02-28 13:26:00,57.8,41.3,29.70,NW,306,22.0,29.0,54,0.00,,,0.00,Wunderground v.1.15,2013-02-28 18:26:00,
2013-02-28 13:32:00,57.6,40.6,29.69,NW,312,25.0,25.0,53,0.00,,,0.00,Wunderground v.1.15,2013-02-28 18:32:00,
2013-02-28 13:38:00,58.0,40.5,29.69,WNW,295,24.0,30.0,52,0.00,,,0.00,Wunderground v.1.15,2013-02-28 18:38:00,
2013-02-28 13:44:00,58.6,40.0,29.69,NW,311,24.0,25.0,50,0.00,,,0.00,Wunderground v.1.15,2013-02-28 18:44:00,
2013-02-28 13:50:00,58.7,39.0,29.69,WNW,302,21.0,29.0,48,0.00,,,0.00,Wunderground v.1.15,2013-02-28 18:50:00,
2013-02-28 13:56:00,58.6,41.5,29.69,NW,306,23.0,29.0,53,0.00,,,0.00,Wunderground v.1.15,2013-02-28 18:56:00,
2013-02-28 14:02:00,58.4,39.8,29.68,WNW,299,24.0,30.0,50,0.00,,,0.00,Wunderground v.1.15,2013-02-28 19:02:00,
2013-02-28 14:08:00,58.9,37.0,29.68,NW,304,24.0,30.0,44,0.00,,,0.00,Wunderground v.1.15,2013-02-28 19:08:00,
2013-02-28 14:14:00,58.7,36.8,29.68,WNW,289,24.0,28.0,44,0.00,,,0.00,Wunderground v.1.15,2013-02-28 19:14:00,
2013-02-28 14:20:00,59.2,39.0,29.68,WNW,295,21.0,22.0,47,0.00,,,0.00,Wunderground v.1.15,2013-02-28 19:20:00,
2013-02-28 14:26:00,59.2,41.1,29.68,NW,305,22.0,26.0,51,0.00,,,0.00,Wunderground v.1.15,2013-02-28 19:26:00,
2013-02-28 14:32:00,59.5,44.2,29.68,NW,319,22.0,25.0,57,0.00,,,0.00,Wunderground v.1.15,2013-02-28 19:32:00,
2013-02-28 14:38:00,59.0,43.8,29.68,NW,326,24.0,25.0,57,0.00,,,0.00,Wunderground v.1.15,2013-02-28 19:38:00,
2013-02-28 14:44:00,59.2,43.5,29.68,NW,326,23.0,25.0,56,0.00,,,0.00,Wunderground v.1.15,2013-02-28 19:44:00,
2013-02-28 14:50:00,59.9,39.1,29.68,WNW,282,20.0,20.0,46,0.00,,,0.00,Wunderground v.1.15,2013-02-28 19:50:00,
2013-02-28 14:56:00,59.6,40.9,29.68,NW,309,22.0,28.0,50,0.00,,,0.00,Wunderground v.1.15,2013-02-28 19:56:00,
2013-02-28 15:02:00,59.3,40.7,29.69,WNW,291,27.0,27.0,50,0.00,,,0.00,Wunderground v.1.15,2013-02-28 20:02:00,
2013-02-28 15:08:00,59.6,42.4,29.69,NW,312,25.0,27.0,53,0.00,,,0.00,Wunderground v.1.15,2013-02-28 20:08:00,
2013-02-28 15:14:00,59.3,43.1,29.69,NW,318,25.0,27.0,55,0.00,,,0.00,Wunderground v.1.15,2013-02-28 20:14:00,
2013-02-28 15:20:00,59.3,42.6,29.69,NW,304,23.0,23.0,54,0.00,,,0.00,Wunderground v.1.15,2013-02-28 20:20:00,
2013-02-28 15:26:00,59.6,41.4,29.69,NW,311,23.0,27.0,51,0.00,,,0.00,Wunderground v.1.15,2013-02-28 20:26:00,
2013-02-28 15:32:00,59.8,42.6,29.69,NW,312,20.0,25.0,53,0.00,,,0.00,Wunderground v.1.15,2013-02-28 20:32:00,
2013-02-28 15:38:00,59.6,43.4,29.69,NW,315,21.0,25.0,55,0.00,,,0.00,Wunderground v.1.15,2013-02-28 20:38:00,
2013-02-28 15:44:00,59.8,42.6,29.69,NW,305,19.0,20.0,53,0.00,,,0.00,Wunderground v.1.15,2013-02-28 20:44:00,
2013-02-28 15:50:00,59.6,43.4,29.69,NW,311,22.0,29.0,55,0.00,,,0.00,Wunderground v.1.15,2013-02-28 20:50:00,
2013-02-28 15:56:00,59.5,43.8,29.69,NW,315,24.0,29.0,56,0.00,,,0.00,Wunderground v.1.15,2013-02-28 20:56:00,
2013-02-28 16:02:00,59.6,42.9,29.69,NW,306,23.0,28.0,54,0.00,,,0.00,Wunderground v.1.15,2013-02-28 21:02:00,
2013-02-28 16:08:00,59.6,43.9,29.69,NW,306,24.0,28.0,56,0.00,,,0.00,Wunderground v.1.15,2013-02-28 21:08:00,
2013-02-28 16:14:00,59.5,44.2,29.68,WNW,301,22.0,24.0,57,0.00,,,0.00,Wunderground v.1.15,2013-02-28 21:14:00,
2013-02-28 16:20:00,59.6,42.4,29.68,NW,309,21.0,21.0,53,0.00,,,0.00,Wunderground v.1.15,2013-02-28 21:20:00,
2013-02-28 16:26:00,59.5,43.3,29.68,WNW,299,21.0,22.0,55,0.00,,,0.00,Wunderground v.1.15,2013-02-28 21:26:00,
2013-02-28 16:32:00,59.3,44.1,29.69,WNW,299,21.0,24.0,57,0.00,,,0.00,Wunderground v.1.15,2013-02-28 21:32:00,
2013-02-28 16:38:00,59.2,44.4,29.69,WNW,301,22.0,24.0,58,0.00,,,0.00,Wunderground v.1.15,2013-02-28 21:38:00,
2013-02-28 16:44:00,59.3,43.1,29.69,NW,326,21.0,22.0,55,0.00,,,0.00,Wunderground v.1.15,2013-02-28 21:44:00,
2013-02-28 16:50:00,59.2,42.6,29.69,WNW,302,21.0,22.0,54,0.00,,,0.00,Wunderground v.1.15,2013-02-28 21:50:00,
2013-02-28 16:56:00,59.3,41.2,29.69,WNW,294,22.0,25.0,51,0.00,,,0.00,Wunderground v.1.15,2013-02-28 21:56:00,
2013-02-28 17:02:00,59.3,42.6,29.69,NW,306,20.0,21.0,54,0.00,,,0.00,Wunderground v.1.15,2013-02-28 22:02:00,
2013-02-28 17:08:00,59.2,44.0,29.69,NW,309,19.0,25.0,57,0.00,,,0.00,Wunderground v.1.15,2013-02-28 22:08:00,
2013-02-28 17:14:00,59.0,43.3,29.70,NW,304,20.0,24.0,56,0.00,,,0.00,Wunderground v.1.15,2013-02-28 22:14:00,
2013-02-28 17:20:00,58.9,43.2,29.70,WNW,294,20.0,20.0,56,0.00,,,0.00,Wunderground v.1.15,2013-02-28 22:20:00,
2013-02-28 17:26:00,58.7,44.4,29.70,NW,312,19.0,21.0,59,0.00,,,0.00,Wunderground v.1.15,2013-02-28 22:26:00,
2013-02-28 17:32:00,58.7,43.5,29.70,NW,312,18.0,18.0,57,0.00,,,0.00,Wunderground v.1.15,2013-02-28 22:32:00,
2013-02-28 17:38:00,58.3,43.1,29.70,WNW,299,16.0,20.0,57,0.00,,,0.00,Wunderground v.1.15,2013-02-28 22:38:00,
2013-02-28 17:44:00,58.0,41.4,29.71,NW,308,17.0,20.0,54,0.00,,,0.00,Wunderground v.1.15,2013-02-28 22:44:00,
2013-02-28 17:50:00,58.0,42.8,29.71,NW,313,18.0,21.0,57,0.00,,,0.00,Wunderground v.1.15,2013-02-28 22:50:00,
2013-02-28 17:56:00,57.8,44.0,29.71,NW,306,20.0,21.0,60,0.00,,,0.00,Wunderground v.1.15,2013-02-28 22:56:00,
2013-02-28 18:02:00,57.6,43.4,29.72,NW,308,18.0,19.0,59,0.00,,,0.00,Wunderground v.1.15,2013-02-28 23:02:00,
2013-02-28 18:08:00,57.5,42.8,29.72,WNW,301,16.0,19.0,58,0.00,,,0.00,Wunderground v.1.15,2013-02-28 23:08:00,
2013-02-28 18:14:00,57.3,42.6,29.73,WNW,295,16.0,17.0,58,0.00,,,0.00,Wunderground v.1.15,2013-02-28 23:14:00,
2013-02-28 18:20:00,57.2,42.5,29.73,NW,312,15.0,17.0,58,0.00,,,0.00,Wunderground v.1.15,2013-02-28 23:20:00,
2013-02-28 18:26:00,56.9,41.8,29.73,WNW,298,15.0,17.0,57,0.00,,,0.00,Wunderground v.1.15,2013-02-28 23:26:00,
2013-02-28 18:32:00,56.7,43.0,29.73,WNW,298,12.0,13.0,60,0.00,,,0.00,Wunderground v.1.15,2013-02-28 23:32:00,
2013-02-28 18:38:00,56.7,43.0,29.73,NW,304,12.0,17.0,60,0.00,,,0.00,Wunderground v.1.15,2013-02-28 23:38:00,
2013-02-28 18:44:00,56.6,43.7,29.74,NW,309,12.0,16.0,62,0.00,,,0.00,Wunderground v.1.15,2013-02-28 23:44:00,
2013-02-28 18:50:00,56.5,43.2,29.74,WNW,299,9.0,9.0,61,0.00,,,0.00,Wunderground v.1.15,2013-02-28 23:50:00,
2013-02-28 18:56:00,56.3,42.1,29.74,NW,304,7.0,9.0,59,0.00,,,0.00,Wunderground v.1.15,2013-02-28 23:56:00,
2013-02-28 19:02:00,56.2,42.5,29.74,WNW,301,6.0,6.0,60,0.00,,,0.00,Wunderground v.1.15,2013-03-01 00:02:00,
2013-02-28 19:08:00,56.0,41.9,29.74,WNW,292,4.0,6.0,59,0.00,,,0.00,Wunderground v.1.15,2013-03-01 00:08:00,
2013-02-28 19:14:00,55.9,41.3,29.75,West,281,3.0,5.0,58,0.00,,,0.00,Wunderground v.1.15,2013-03-01 00:14:00,
2013-02-28 19:20:00,55.7,41.1,29.75,WNW,288,3.0,3.0,58,0.00,,,0.00,Wunderground v.1.15,2013-03-01 00:20:00,
2013-02-28 19:26:00,55.7,41.6,29.75,WNW,299,3.0,3.0,59,0.00,,,0.00,Wunderground v.1.15,2013-03-01 00:26:00,
2013-02-28 19:32:00,55.7,43.7,29.75,NW,304,3.0,6.0,64,0.00,,,0.00,Wunderground v.1.15,2013-03-01 00:32:00,
2013-02-28 19:38:00,55.7,43.7,29.75,WNW,299,5.0,7.0,64,0.00,,,0.00,Wunderground v.1.15,2013-03-01 00:38:00,
2013-02-28 19:44:00,55.6,42.8,29.76,WNW,288,5.0,7.0,62,0.00,,,0.00,Wunderground v.1.15,2013-03-01 00:44:00,
2013-02-28 19:50:00,55.3,42.9,29.76,NW,304,3.0,3.0,63,0.00,,,0.00,Wunderground v.1.15,2013-03-01 00:50:00,
2013-02-28 19:56:00,55.1,43.5,29.76,WNW,301,3.0,6.0,65,0.00,,,0.00,Wunderground v.1.15,2013-03-01 00:56:00,
2013-02-28 20:02:00,55.3,45.7,29.76,NW,308,4.0,7.0,70,0.00,,,0.00,Wunderground v.1.15,2013-03-01 01:02:00,
2013-02-28 20:08:00,55.7,43.7,29.76,NNW,332,8.0,11.0,64,0.00,,,0.00,Wunderground v.1.15,2013-03-01 01:08:00,
2013-02-28 20:14:00,55.9,43.1,29.76,NNW,328,11.0,17.0,62,0.00,,,0.00,Wunderground v.1.15,2013-03-01 01:14:00,
2013-02-28 20:20:00,55.7,42.5,29.76,NNW,328,14.0,15.0,61,0.00,,,0.00,Wunderground v.1.15,2013-03-01 01:20:00,
2013-02-28 20:26:00,55.7,43.7,29.76,NW,320,16.0,17.0,64,0.00,,,0.00,Wunderground v.1.15,2013-03-01 01:26:00,
2013-02-28 20:32:00,55.4,43.8,29.77,NNW,339,14.0,15.0,65,0.00,,,0.00,Wunderground v.1.15,2013-03-01 01:32:00,
2013-02-28 20:38:00,55.4,44.2,29.77,NNW,329,12.0,15.0,66,0.00,,,0.00,Wunderground v.1.15,2013-03-01 01:38:00,
2013-02-28 20:44:00,55.4,43.4,29.77,NNW,346,12.0,17.0,64,0.00,,,0.00,Wunderground v.1.15,2013-03-01 01:44:00,
2013-02-28 20:50:00,55.1,43.5,29.77,North,349,16.0,17.0,65,0.00,,,0.00,Wunderground v.1.15,2013-03-01 01:50:00,
2013-02-28 20:56:00,54.8,43.7,29.77,NNW,340,17.0,19.0,66,0.00,,,0.00,Wunderground v.1.15,2013-03-01 01:56:00,
2013-02-28 21:02:00,54.7,43.2,29.77,NNW,328,19.0,20.0,65,0.00,,,0.00,Wunderground v.1.15,2013-03-01 02:02:00,
2013-02-28 21:08:00,54.5,43.4,29.77,NNW,333,20.0,21.0,66,0.00,,,0.00,Wunderground v.1.15,2013-03-01 02:08:00,
2013-02-28 21:14:00,54.2,42.3,29.78,NNW,332,20.0,22.0,64,0.00,,,0.00,Wunderground v.1.15,2013-03-01 02:14:00,
2013-02-28 21:20:00,54.1,42.6,29.78,North,350,21.0,22.0,65,0.00,,,0.00,Wunderground v.1.15,2013-03-01 02:20:00,
2013-02-28 21:26:00,53.8,42.3,29.78,NNW,330,22.0,24.0,65,0.00,,,0.00,Wunderground v.1.15,2013-03-01 02:26:00,
2013-02-28 21:32:00,53.6,41.7,29.78,NNW,342,22.0,22.0,64,0.00,,,0.00,Wunderground v.1.15,2013-03-01 02:32:00,
2013-02-28 21:38:00,53.3,41.8,29.78,NNW,330,22.0,22.0,65,0.00,,,0.00,Wunderground v.1.15,2013-03-01 02:38:00,
2013-02-28 21:44:00,53.2,40.9,29.78,NNW,335,23.0,26.0,63,0.00,,,0.00,Wunderground v.1.15,2013-03-01 02:44:00,
2013-02-28 21:50:00,52.9,41.4,29.78,NNW,343,22.0,24.0,65,0.00,,,0.00,Wunderground v.1.15,2013-03-01 02:50:00,
2013-02-28 21:56:00,52.8,41.0,29.78,NNW,339,22.0,24.0,64,0.00,,,0.00,Wunderground v.1.15,2013-03-01 02:56:00,
2013-02-28 22:02:00,52.8,42.5,29.79,NW,322,22.0,22.0,68,0.00,,,0.00,Wunderground v.1.15,2013-03-01 03:02:00,
2013-02-28 22:08:00,52.5,41.9,29.79,NW,320,19.0,22.0,67,0.00,,,0.00,Wunderground v.1.15,2013-03-01 03:08:00,
2013-02-28 22:14:00,52.3,41.3,29.78,NW,326,19.0,20.0,66,0.00,,,0.00,Wunderground v.1.15,2013-03-01 03:14:00,
2013-02-28 22:20:00,52.2,41.6,29.78,NNW,329,18.0,18.0,67,0.00,,,0.00,Wunderground v.1.15,2013-03-01 03:20:00,
2013-02-28 22:26:00,52.2,42.3,29.78,NNW,336,15.0,18.0,69,0.00,,,0.00,Wunderground v.1.15,2013-03-01 03:26:00,
2013-02-28 22:32:00,52.0,40.6,29.79,NNW,333,16.0,19.0,65,0.00,,,0.00,Wunderground v.1.15,2013-03-01 03:32:00,
2013-02-28 22:38:00,51.9,40.9,29.79,NW,315,16.0,19.0,66,0.00,,,0.00,Wunderground v.1.15,2013-03-01 03:38:00,
2013-02-28 22:44:00,51.7,41.9,29.79,NNW,329,17.0,17.0,69,0.00,,,0.00,Wunderground v.1.15,2013-03-01 03:44:00,
2013-02-28 22:50:00,51.6,40.2,29.79,NW,326,17.0,17.0,65,0.00,,,0.00,Wunderground v.1.15,2013-03-01 03:50:00,
2013-02-28 22:56:00,51.4,41.2,29.79,NW,322,15.0,18.0,68,0.00,,,0.00,Wunderground v.1.15,2013-03-01 03:56:00,
2013-02-28 23:02:00,51.3,41.5,29.79,NW,323,13.0,14.0,69,0.00,,,0.00,Wunderground v.1.15,2013-03-01 04:02:00,
2013-02-28 23:08:00,51.1,41.7,29.79,NW,318,13.0,14.0,70,0.00,,,0.00,Wunderground v.1.15,2013-03-01 04:08:00,
2013-02-28 23:14:00,51.0,41.2,29.79,NW,320,14.0,18.0,69,0.00,,,0.00,Wunderground v.1.15,2013-03-01 04:14:00,
2013-02-28 23:20:00,50.8,41.7,29.79,NNW,329,15.0,16.0,71,0.00,,,0.00,Wunderground v.1.15,2013-03-01 04:20:00,
2013-02-28 23:26:00,50.7,40.1,29.79,NW,326,15.0,20.0,67,0.00,,,0.00,Wunderground v.1.15,2013-03-01 04:26:00,
2013-02-28 23:32:00,50.7,39.4,29.79,NNW,332,17.0,17.0,65,0.00,,,0.00,Wunderground v.1.15,2013-03-01 04:32:00,
2013-02-28 23:38:00,50.5,39.9,29.79,NNW,332,17.0,20.0,67,0.00,,,0.00,Wunderground v.1.15,2013-03-01 04:38:00,
2013-02-28 23:44:00,50.5,39.6,29.79,NW,320,19.0,24.0,66,0.00,,,0.00,Wunderground v.1.15,2013-03-01 04:44:00,
2013-02-28 23:50:00,50.2,39.3,29.79,NNW,330,20.0,21.0,66,0.00,,,0.00,Wunderground v.1.15,2013-03-01 04:50:00,
2013-02-28 23:56:00,50.1,39.6,29.79,NNW,337,17.0,21.0,67,0.00,,,0.00,Wunderground v.1.15,2013-03-01 04:56:00,